Location: Bittelbronn
(48.4454°N, 8.5870°E)
Time: 16:11:53
(UTC+00:00)

CZ-2C R/B - Pass Details

Date: 23 May 2024
Orbit: 784 x 868 km, 98.3° (Epoch: 16 June)

Event Time Altitude Azimuth Distance (km) Brightness Sun altitude
Exits shadow 02:29:14 11° 210° (SSW) 2,268 4.3 -9.3°
Maximum altitude 02:33:22 27° 267° (W) 1,471 3.6 -8.8°
Drops below altitude 10° 02:37:45 10° 325° (NW) 2,357 5.2 -8.3°
Sets 02:40:26 0° 337° (NNW) 3,298 6.1 -8.0°
